Location: Newark
(43.2825°N, 1.0664°E)
Time: 11:28:13
(UTC+00:00)

N. Korean satellite - Visible Passes

Search period start: 21 November 2019 00:00
Search period end: 01 December 2019 00:00
Orbit: 456 x 506 km, 97.2° (Epoch: 20 November)

Date Brightness Start Highest point End Pass type
(mag) Time Alt. Az. Time Alt. Az. Time Alt. Az.
21 Nov 8.6 05:19:12 10° NNE 05:22:34 32° E 05:25:51 10° SSE visible
21 Nov 8.4 17:28:32 10° SSW 17:31:55 37° W 17:35:23 10° NNW visible
22 Nov 9.8 04:54:37 10° NE 04:57:00 16° E 04:59:22 10° SE visible
22 Nov 7.3 06:27:09 10° N 06:30:30 33° WNW 06:33:48 10° SW visible
22 Nov 6.8 17:02:49 10° S 17:06:29 80° WSW 17:10:13 10° NNW visible
23 Nov 6.5 06:01:31 10° N 06:05:12 70° WNW 06:08:49 10° SSW visible
23 Nov 10.2 18:13:26 10° WSW 18:14:48 12° W 18:16:12 10° WNW visible
24 Nov 7.4 05:36:11 10° NNE 05:39:48 53° E 05:43:21 10° S visible
24 Nov 9.3 17:46:14 10° SSW 17:49:12 23° W 17:52:13 10° NW visible
25 Nov 9.0 05:11:12 10° NE 05:14:18 25° E 05:17:22 10° SSE visible
25 Nov 7.8 17:20:08 10° S 17:23:41 46° W 17:27:17 10° NNW visible
26 Nov 10.0 04:46:56 10° ENE 04:48:43 13° E 04:50:27 10° ESE visible
26 Nov 7.0 06:18:51 10° N 06:22:19 41° WNW 06:25:43 10° SW visible
26 Nov 6.6 16:54:35 10° SSE 16:58:16 81° ENE 17:02:00 10° N visible
27 Nov 6.5 05:53:18 10° NNE 05:56:59 89° W 06:00:34 10° SSW visible
27 Nov 9.9 18:04:21 10° SW 18:06:29 15° W 18:08:39 10° NW visible
28 Nov 8.0 05:28:03 10° NNE 05:31:32 41° E 05:34:56 10° S visible
28 Nov 8.9 17:37:40 10° SSW 17:40:54 28° W 17:44:11 10° NW visible
29 Nov 9.4 05:03:12 10° NE 05:05:59 20° E 05:08:43 10° SE visible
29 Nov 7.3 17:11:46 10° S 17:15:25 60° W 17:19:07 10° NNW visible
30 Nov 10.2 04:39:55 10° E 04:40:21 10° E 04:40:45 10° E visible
30 Nov 6.7 06:10:32 10° N 06:14:04 52° WNW 06:17:32 10° SSW visible
30 Nov 6.6 16:46:21 10° SSE 16:50:01 64° ENE 16:53:43 10° N visible
